Weather Roundup
Issued by NWS

Home | Current Version | Previous Version | Text Only | Print | Product List | Glossary On
Versions: 1 2 3 4 5 6 7 8 9 10 11 12 13 14 15 16 17 18 19 20 21 22 23 24 25 26 27 28 29 30 31 32 33 34 35 36 37 38 39 40 41 42 43 44 45 46 47 48 49 50
000
NZUS93 KARX 040659
HRRWXR

CURRENT HOURLY OBSERVATIONS ACROSS
MUCH OF THE UPPER MISSISSIPPI VALLEY
NATIONAL WEATHER SERVICE LA CROSSE WI
200 AM CDT FRI SEP 04 2015


...SOUTHEAST MINNESOTA...


CITY           SKY/WX    TMP DP  RH WIND       PRES   REMARKS
ROCHESTER      CLEAR     73  72  96 SE8       29.95S FOG
ROCHESTER/MAYO FAIR      74  74 100 E8        29.95R
WINONA         CLEAR     73  68  83 SE7       29.95R
AUSTIN         CLEAR     75  72  88 S3        29.93S
ALBERT LEA     CLEAR     73  72  94 SE5       29.92S
DODGE CENTER   CLEAR     72  72 100 SE7       29.94S FOG
PRESTON        CLEAR     73  71  92 SE3       29.96S
OWATONNA       CLEAR     73  72  94 SE7       29.91S
FARIBAULT      CLEAR     73  72  94 E8        29.91S
$$

...ELSEWHERE IN MINNESOTA...


CITY           SKY/WX    TMP DP  RH WIND       PRES   REMARKS
MINNEAPOLIS    CLEAR     73  68  84 SE14      29.90F
INTNL FALLS    CLEAR     58  53  84 SE6       29.95R
DULUTH         CLEAR     56  53  90 E9        29.99S
RED WING       CLEAR     72  66  83 E8        29.92S
REDWOOD FALLS  CLEAR     75  72  90 SE8       29.84S
MANKATO        CLEAR     75  72  88 SE7       29.89R
WORTHINGTON    PTCLDY    73  66  78 S9        29.87R
FAIRMONT       PTCLDY    73  66  78 SE9       29.88S
$$

...SOUTHWEST WISCONSIN...


CITY           SKY/WX    TMP DP  RH WIND       PRES   REMARKS
LA CROSSE      CLEAR     72  66  81 SE8       29.95S
PRAIRIE DU CHI PTCLDY    74  70  87 E3        29.94R
BOSCOBEL       CLEAR     71  68  90 CALM      29.96S
LONE ROCK      NOT AVBL
PLATTEVILLE    CLEAR     70  69  95 E10       29.97R
FORT MC COY    CLOUDY    68  64  88 CALM      29.99R
VIROQUA          N/A     68  68 100 E8        29.98S
WIS DELLS      CLOUDY    69  65  85 E6        29.98S
$$

...ELSEWHERE IN WISCONSIN...


CITY           SKY/WX    TMP DP  RH WIND       PRES   REMARKS
MILWAUKEE      MOCLDY    66  63  90 CALM      29.97S
MADISON        CLOUDY    71  65  81 E5        29.97S
GREEN BAY      CLOUDY    68  64  87 N8        30.00R
EAU CLAIRE     MOCLDY    70  64  81 E7        29.97R
BLACK RVR FLS  PTSUNNY   70  64  83 CALM      29.98R
MEDFORD        CLEAR     61  61 100 E5        30.03S
WAUSAU         CLEAR     63  62  97 CALM      30.01S FOG
WIS RAPIDS     CLOUDY    67  63  87 E7        30.01S
MARSHFIELD     CLOUDY    67  63  87 E7        30.01R
RICE LAKE      CLOUDY    67  64  90 CALM      30.00S
$$

...NORTHEAST IOWA...


CITY           SKY/WX    TMP DP  RH WIND       PRES   REMARKS
DECORAH        PTCLDY    73  73 100 CALM      29.95R FOG
MASON CITY     PTCLDY    70  70 100 SE3       29.94R
CHARLES CITY   PTCLDY    73  73 100 S5        29.94S
OELWEIN        CLEAR     72  70  94 SE5       29.95R
$$

...ELSEWHERE IN IOWA...


CITY           SKY/WX    TMP DP  RH WIND       PRES   REMARKS
DES MOINES     PTCLDY    76  68  76 S8        29.93R
IOWA CITY      PTCLDY    71  70  96 CALM      29.94S
FORT DODGE     PTCLDY    73  68  83 SE7       29.91S
$$

...NORTHERN ILLINOIS...


CITY           SKY/WX    TMP DP  RH WIND       PRES   REMARKS
CHICAGO-OHARE  PTCLDY    70  67  90 NE3       29.96F
CHICAGO-MIDWAY PTCLDY    73  67  81 E7        29.96F
MOLINE         CLEAR     72  68  87 CALM      29.94R
ROCKFORD       CLEAR     70  66  87 CALM      29.98S
PEORIA         CLEAR     77  67  71 CALM      29.95S
$$

NOTE: "FAIR" INDICATES FEW OR NO CLOUDS BELOW 12,000 FEET WITH NO
SIGNIFICANT WEATHER AND/OR OBSTRUCTIONS TO VISIBILITY. WIND
SPEEDS ARE IN MILES-PER-HOUR.



USA.gov is the U.S. government's official web portal to all federal, state and local government web resources and services.